Weather History for La Crosse, WI

Change the Weather History Date:

Saturday, August 9, 2014

  Actual Average Record
Temperature  
Mean Temperature 73 °F 72 °F  
Max Temperature 84 °F 83 °F 98 °F (1936)
Min Temperature 62 °F 62 °F 44 °F (1927)
Degree Days  
Heating Degree Days 0 0  
Month to date heating degree days 0 0  
Since 1 July heating degree days 3 5  
Cooling Degree Days 8 8  
Month to date cooling degree days 80 72  
Year to date cooling degree days 559 559  
Growing Degree Days 22 (Base 50)    
Moisture  
Dew Point 59 °F    
Average Humidity 66    
Maximum Humidity 90    
Minimum Humidity 42    
Precipitation  
Precipitation 0.00 in 0.14 in 1.18 in (1906)
Month to date precipitation 0.61 1.30  
Year to date precipitation 25.47 20.97  
Snow  
Snow 0.00 in 0.00 in 0.00 in (2002)
Month to date snowfall 0.0 0.0  
Since 1 July snowfall 0.0 0.0  
Snow Depth 0.00 in    
Sea Level Pressure  
Sea Level Pressure 30.07 in    
Wind  
Wind Speed 5 mph (ESE)    
Max Wind Speed 14 mph    
Max Gust Speed 18 mph    
Visibility 10 miles    
Events      
T = Trace of Precipitation, MM = Missing Value Source: NWS Daily Summary

Daily Weather History Graph

Daily Weather History Graph

Search for Another Location

Airport:

Trip Planner

Search our weather history database for the weather conditions in past years. The results will help you decide how hot, cold, wet, or windy it might be!

Date:

Astronomy

Aug. 09, 2014 Rise Set
Actual Time 6:02 AM CDT 8:17 PM CDT
Civil Twilight 5:30 AM CDT 8:49 PM CDT
Nautical Twilight 4:50 AM CDT 9:28 PM CDT
Astronomical Twilight 4:06 AM CDT 10:12 PM CDT
Moon 7:18 PM CDT (8/9) 4:43 AM CDT (8/9)
Length of Visible Light 15h 19m
Length of Day
14h 15m
Waxing Gibbous, 98% of the Moon is Illuminated
Aug 9
Waxing Gibbous
Aug 10
Full
Aug 17
Last Quarter
Aug 25
New
Sep 2
First Quarter

Hourly Weather History & Observations

Time (CDT) Temp. Heat Index Dew Point Humidity Pressure Visibility Wind Dir Wind Speed Gust Speed Precip Events Conditions
12:53 AM 66.9 °F - 62.1 °F 84% 30.06 in 10.0 mi ESE 4.6 mph - N/A   Clear
1:53 AM 66.0 °F - 61.0 °F 84% 30.05 in 10.0 mi ESE 5.8 mph - N/A   Clear
2:53 AM 64.9 °F - 61.0 °F 87% 30.06 in 10.0 mi ESE 4.6 mph - N/A   Clear
3:53 AM 64.0 °F - 60.1 °F 87% 30.08 in 10.0 mi Calm Calm - N/A   Mostly Cloudy
4:53 AM 64.0 °F - 60.1 °F 87% 30.09 in 9.0 mi Calm Calm - N/A   Overcast
5:53 AM 63.0 °F - 59.0 °F 87% 30.09 in 9.0 mi Calm Calm - N/A   Clear
6:53 AM 64.0 °F - 59.0 °F 84% 30.10 in 9.0 mi ESE 3.5 mph - N/A   Clear
7:53 AM 66.9 °F - 60.1 °F 79% 30.10 in 10.0 mi Calm Calm - N/A   Scattered Clouds
8:53 AM 72.0 °F - 59.0 °F 64% 30.10 in 10.0 mi SE 3.5 mph - N/A   Scattered Clouds
9:53 AM 75.0 °F - 60.1 °F 60% 30.11 in 10.0 mi East 4.6 mph - N/A   Clear
10:53 AM 77.0 °F - 62.1 °F 60% 30.10 in 10.0 mi Calm Calm - N/A   Clear
12:53 PM 82.9 °F 82.8 °F 59.0 °F 44% 30.07 in 10.0 mi SE 8.1 mph - N/A   Scattered Clouds
1:53 PM 82.9 °F 82.8 °F 59.0 °F 44% 30.07 in 10.0 mi East 10.4 mph - N/A   Clear
2:53 PM 82.0 °F 82.0 °F 57.9 °F 44% 30.07 in 10.0 mi East 5.8 mph - N/A   Clear
3:53 PM 82.0 °F 82.0 °F 57.9 °F 44% 30.06 in 10.0 mi East 5.8 mph - N/A   Clear
4:53 PM 81.0 °F 81.1 °F 57.9 °F 45% 30.05 in 10.0 mi ESE 8.1 mph - N/A   Clear
5:53 PM 81.0 °F 81.1 °F 57.9 °F 45% 30.04 in 10.0 mi East 5.8 mph - N/A   Clear
6:53 PM 81.0 °F 80.7 °F 55.0 °F 41% 30.04 in 10.0 mi East 6.9 mph - N/A   Clear
7:53 PM 77.0 °F - 57.9 °F 52% 30.04 in 10.0 mi ESE 3.5 mph - N/A   Clear
8:53 PM 73.0 °F - 61.0 °F 66% 30.05 in 10.0 mi East 4.6 mph - N/A   Clear
11:53 PM 68.0 °F - 60.1 °F 76% 30.04 in 10.0 mi ESE 5.8 mph - N/A   Clear